Location: Newark
(49.5667°N, 1.1667°E)
Time: 14:09:46
(UTC+00:00)

ISS - Visible Passes

Search period start: 18 September 2020 00:00
Search period end: 28 September 2020 00:00
Orbit: 419 x 420 km, 51.6° (Epoch: 18 September)

Date Brightness Start Highest point End Pass type
(mag) Time Alt. Az. Time Alt. Az. Time Alt. Az.
18 Sep -3.0 19:38:19 10° SW 19:41:14 35° SSE 19:41:14 35° SSE visible
19 Sep -2.5 18:51:22 10° SSW 18:54:10 25° SE 18:56:08 15° E visible
19 Sep -2.1 20:27:20 10° WSW 20:29:08 29° WSW 20:29:08 29° WSW visible
20 Sep -3.9 19:39:58 10° WSW 19:43:19 71° SSE 19:43:52 56° E visible
21 Sep -3.5 18:52:40 10° SW 18:55:56 51° SSE 18:58:29 16° E visible
21 Sep -2.0 20:29:24 10° W 20:31:27 33° WNW 20:31:27 33° WNW visible
22 Sep -3.7 19:41:55 10° W 19:45:18 72° NNW 19:45:57 53° NE visible
23 Sep -3.8 18:54:28 10° WSW 18:57:50 88° NNW 19:00:22 17° ENE visible
23 Sep -1.7 20:31:28 10° WNW 20:33:20 29° WNW 20:33:20 29° WNW visible
24 Sep -3.4 19:43:58 10° W 19:47:19 58° N 19:47:42 54° NNE visible
25 Sep -3.4 18:56:27 10° W 18:59:49 63° N 19:02:01 20° ENE visible
25 Sep -1.4 20:33:27 10° WNW 20:34:58 24° WNW 20:34:58 24° WNW visible
26 Sep -3.5 19:45:57 10° WNW 19:49:16 62° N 19:49:16 62° N visible
27 Sep -3.4 18:58:26 10° WNW 19:01:47 58° N 19:03:33 25° ENE visible
27 Sep -1.1 20:35:20 10° WNW 20:36:30 20° WNW 20:36:30 20° WNW visible
